| time (UTC) | temp C | wind direction | speed KPH | gust KPH | rain 1hr cm | rain 24hr cm | rain mn cm | humidity % | barometer mb |
| 20260504010317 | 19 | 202 | 0.0 | 1.6 | 0.00 | 0.00 | 0.00 | 26 | 1002.3 |
| 20260504005315 | 20 | 295 | 1.6 | 3.2 | 0.00 | 0.00 | 0.00 | 26 | 1002.7 |
| 20260504004318 | 20 | 292 | 1.6 | 3.2 | 0.00 | 0.00 | 0.00 | 26 | 1002.3 |
| 20260504003316 | 20 | 15 | 1.6 | 6.4 | 0.00 | 0.00 | 0.00 | 26 | 1002.3 |
| 20260504002318 | 20 | 9 | 1.6 | 3.2 | 0.00 | 0.00 | 0.00 | 25 | 1002.3 |
| 20260504001317 | 21 | 351 | 1.6 | 3.2 | 0.00 | 0.00 | 0.00 | 25 | 1002.3 |
| 20260504000318 | 21 | 279 | 3.2 | 6.4 | 0.00 | 0.00 | 0.00 | 25 | 1002.3 |
| 20260503235317 | 21 | 258 | 3.2 | 6.4 | 0.00 | 0.00 | 0.00 | 26 | 1002.1 |
| 20260503234315 | 21 | 240 | 1.6 | 3.2 | 0.00 | 0.00 | 0.00 | 28 | 1002.3 |
| 20260503233317 | 21 | 307 | 3.2 | 4.8 | 0.00 | 0.00 | 0.00 | 27 | 1002.3 |
| 20260503232315 | 21 | 343 | 4.8 | 6.4 | 0.00 | 0.00 | 0.00 | 27 | 1002.5 |
| 20260503231317 | 21 | 331 | 3.2 | 6.4 | 0.00 | 0.00 | 0.00 | 28 | 1002.3 |
| 20260503230316 | 21 | 271 | 3.2 | 11.3 | 0.00 | 0.00 | 0.00 | 28 | 1002.3 |
| 20260503225318 | 22 | 17 | 1.6 | 9.7 | 0.00 | 0.00 | 0.00 | 29 | 1002.1 |
| 20260503224316 | 22 | 294 | 1.6 | 4.8 | 0.00 | 0.00 | 0.00 | 28 | 1002.1 |
| 20260503223318 | 22 | 23 | 0.0 | 1.6 | 0.00 | 0.00 | 0.00 | 29 | 1002.1 |
| 20260503222316 | 22 | 283 | 1.6 | 9.7 | 0.00 | 0.00 | 0.00 | 26 | 1002.0 |
| 20260503221315 | 22 | 300 | 3.2 | 6.4 | 0.00 | 0.00 | 0.00 | 25 | 1002.3 |
| 20260503220317 | 23 | 316 | 1.6 | 6.4 | 0.00 | 0.00 | 0.00 | 26 | 1002.3 |
| 20260503215315 | 22 | 300 | 1.6 | 4.8 | 0.00 | 0.00 | 0.00 | 27 | 1002.1 |
| 20260503214317 | 22 | 324 | 3.2 | 9.7 | 0.00 | 0.00 | 0.00 | 27 | 1002.0 |
| 20260503213316 | 22 | 350 | 0.0 | 0.0 | 0.00 | 0.00 | 0.00 | 25 | 1002.3 |
| 20260503212317 | 22 | 277 | 3.2 | 6.4 | 0.00 | 0.00 | 0.00 | 27 | 1002.0 |
| 20260503211316 | 22 | 287 | 6.4 | 16.1 | 0.00 | 0.00 | 0.00 | 26 | 1002.7 |
| 20260503210318 | 23 | 344 | 6.4 | 12.9 | 0.00 | 0.00 | 0.00 | 25 | 1002.7 |
| 20260503205316 | 23 | 305 | 6.4 | 11.3 | 0.00 | 0.00 | 0.00 | 26 | 1002.7 |
| 20260503204318 | 23 | 313 | 4.8 | 11.3 | 0.00 | 0.00 | 0.00 | 25 | 1002.7 |
| 20260503203316 | 23 | 278 | 4.8 | 12.9 | 0.00 | 0.00 | 0.00 | 25 | 1002.7 |
| 20260503202315 | 23 | 15 | 1.6 | 3.2 | 0.00 | 0.00 | 0.00 | 27 | 1002.7 |
| 20260503201317 | 23 | 161 | 1.6 | 6.4 | 0.00 | 0.00 | 0.00 | 27 | 1002.7 |
| 20260503200315 | 23 | 8 | 4.8 | 9.7 | 0.00 | 0.00 | 0.00 | 26 | 1003.0 |
| 20260503195317 | 23 | 266 | 4.8 | 9.7 | 0.00 | 0.00 | 0.00 | 28 | 1003.0 |
| 20260503194315 | 23 | 355 | 4.8 | 9.7 | 0.00 | 0.00 | 0.00 | 28 | 1003.0 |
| 20260503193318 | 24 | 333 | 4.8 | 11.3 | 0.00 | 0.00 | 0.00 | 28 | 1003.0 |
| 20260503192316 | 23 | 309 | 3.2 | 6.4 | 0.00 | 0.00 | 0.00 | 29 | 1003.0 |
| 20260503191318 | 23 | 270 | 3.2 | 6.4 | 0.00 | 0.00 | 0.00 | 29 | 1003.0 |
| 20260503190316 | 22 | 309 | 4.8 | 12.9 | 0.00 | 0.00 | 0.00 | 28 | 1003.2 |
| 20260503185318 | 24 | 38 | 3.2 | 6.4 | 0.00 | 0.00 | 0.00 | 27 | 1003.2 |
| 20260503184316 | 23 | 229 | 3.2 | 4.8 | 0.00 | 0.00 | 0.00 | 32 | 1003.2 |
| 20260503183314 | 23 | 360 | 3.2 | 6.4 | 0.00 | 0.00 | 0.00 | 30 | 1003.4 |
| 20260503182317 | 23 | 351 | 3.2 | 6.4 | 0.00 | 0.00 | 0.00 | 30 | 1003.4 |
| 20260503181315 | 23 | 315 | 3.2 | 6.4 | 0.00 | 0.00 | 0.00 | 27 | 1003.4 |
| 20260503180317 | 25 | 319 | 6.4 | 16.1 | 0.00 | 0.00 | 0.00 | 28 | 1003.4 |
| 20260503175315 | 25 | 354 | 3.2 | 4.8 | 0.00 | 0.00 | 0.00 | 28 | 1003.4 |
| 20260503174317 | 25 | 2 | 0.0 | 3.2 | 0.00 | 0.00 | 0.00 | 27 | 1003.5 |
| 20260503173316 | 25 | 332 | 6.4 | 9.7 | 0.00 | 0.00 | 0.00 | 27 | 1003.7 |
| 20260503172318 | 25 | 275 | 1.6 | 4.8 | 0.00 | 0.00 | 0.00 | 26 | 1003.5 |
| 20260503171316 | 26 | 257 | 1.6 | 3.2 | 0.00 | 0.00 | 0.00 | 26 | 1003.7 |
| 20260503170318 | 26 | 218 | 1.6 | 6.4 | 0.00 | 0.00 | 0.00 | 28 | 1003.7 |
| 20260503150316 | 23 | 277 | 3.2 | 4.8 | 0.00 | 0.00 | 0.00 | 27 | 1004.2 |
| 20260503131316 | 17 | 221 | 4.8 | 14.5 | 0.00 | 0.00 | 0.00 | 37 | 1004.7 |
| 20260503130315 | 16 | 208 | 6.4 | 16.1 | 0.00 | 0.00 | 0.00 | 37 | 1004.7 |
| 20260503110317 | 12 | 72 | 3.2 | 6.4 | 0.00 | 0.00 | 0.00 | 44 | 1004.2 |
| 20260503090316 | 13 | 224 | 8.0 | 20.9 | 0.00 | 0.00 | 0.00 | 41 | 1006.1 |
| 20260503081318 | 12 | 199 | 4.8 | 6.4 | 0.00 | 0.00 | 0.00 | 39 | 1007.0 |
| 20260503080317 | 12 | 216 | 1.6 | 4.8 | 0.00 | 0.00 | 0.00 | 38 | 1006.8 |
| 20260503072318 | 13 | 195 | 3.2 | 9.7 | 0.00 | 0.00 | 0.00 | 38 | 1007.2 |
| 20260503071316 | 13 | 250 | 4.8 | 9.7 | 0.00 | 0.00 | 0.00 | 37 | 1007.3 |
| 20260503070318 | 13 | 175 | 1.6 | 3.2 | 0.00 | 0.00 | 0.00 | 38 | 1007.5 |
| 20260503060315 | 13 | 247 | 3.2 | 9.7 | 0.00 | 0.00 | 0.00 | 37 | 1008.0 |
| 20260503054316 | 13 | 258 | 3.2 | 11.3 | 0.00 | 0.00 | 0.00 | 37 | 1008.5 |
| 20260503053318 | 13 | 242 | 1.6 | 3.2 | 0.00 | 0.00 | 0.00 | 36 | 1008.4 |
| 20260503052316 | 13 | 206 | 1.6 | 4.8 | 0.00 | 0.00 | 0.00 | 36 | 1008.7 |
| 20260503051318 | 13 | 219 | 1.6 | 4.8 | 0.00 | 0.00 | 0.00 | 36 | 1008.9 |
| 20260503050316 | 14 | 231 | 4.8 | 11.3 | 0.00 | 0.00 | 0.00 | 36 | 1008.7 |
| 20260503045318 | 14 | 240 | 1.6 | 4.8 | 0.00 | 0.00 | 0.00 | 35 | 1008.7 |
| 20260503044316 | 14 | 213 | 3.2 | 6.4 | 0.00 | 0.00 | 0.00 | 35 | 1008.7 |
| 20260503043319 | 14 | 240 | 3.2 | 6.4 | 0.00 | 0.00 | 0.00 | 35 | 1008.9 |
| 20260503042316 | 14 | 214 | 3.2 | 6.4 | 0.00 | 0.00 | 0.00 | 35 | 1008.9 |
| 20260503041315 | 15 | 189 | 0.0 | 0.0 | 0.00 | 0.00 | 0.00 | 35 | 1009.1 |
| 20260503040317 | 15 | 248 | 1.6 | 3.2 | 0.00 | 0.00 | 0.00 | 34 | 1009.1 |
| 20260503035315 | 15 | 270 | 3.2 | 6.4 | 0.00 | 0.00 | 0.00 | 34 | 1009.2 |
| 20260503034317 | 15 | 219 | 1.6 | 6.4 | 0.00 | 0.00 | 0.00 | 33 | 1009.2 |
| 20260503033315 | 15 | 203 | 3.2 | 11.3 | 0.00 | 0.00 | 0.00 | 34 | 1009.4 |
| 20260503032317 | 15 | 185 | 1.6 | 6.4 | 0.00 | 0.00 | 0.00 | 34 | 1009.6 |
| 20260503031315 | 15 | 218 | 1.6 | 4.8 | 0.00 | 0.00 | 0.00 | 33 | 1009.6 |
| 20260503030317 | 15 | 224 | 0.0 | 1.6 | 0.00 | 0.00 | 0.00 | 32 | 1009.6 |
| 20260503025315 | 15 | 256 | 1.6 | 3.2 | 0.00 | 0.00 | 0.00 | 32 | 1009.6 |
| 20260503024317 | 15 | 203 | 1.6 | 9.7 | 0.00 | 0.00 | 0.00 | 34 | 1009.7 |
| 20260503023315 | 15 | 202 | 3.2 | 6.4 | 0.00 | 0.00 | 0.00 | 33 | 1009.9 |
| 20260503022317 | 15 | 270 | 0.0 | 0.0 | 0.00 | 0.00 | 0.00 | 33 | 1009.9 |
| 20260503021315 | 15 | 312 | 1.6 | 3.2 | 0.00 | 0.00 | 0.00 | 33 | 1010.1 |
| 20260503020317 | 15 | 233 | 1.6 | 4.8 | 0.00 | 0.00 | 0.00 | 34 | 1009.9 |
| 20260503015316 | 15 | 212 | 0.0 | 1.6 | 0.00 | 0.00 | 0.00 | 33 | 1010.1 |
| 20260503014318 | 15 | 243 | 0.0 | 1.6 | 0.00 | 0.00 | 0.00 | 33 | 1009.9 |
| 20260503013316 | 15 | 295 | 0.0 | 0.0 | 0.00 | 0.00 | 0.00 | 32 | 1010.1 |
| 20260503012318 | 16 | 291 | 0.0 | 0.0 | 0.00 | 0.00 | 0.00 | 32 | 1010.1 |
| 20260503011316 | 16 | 288 | 0.0 | 1.6 | 0.00 | 0.00 | 0.00 | 31 | 1009.9 |